User: anonymous   Login
Location: Caltech
(34.1382°N, 118.1253°W)
Time: 21:46:28
(UTC-07:00)
Language:

Meteor 2-4 Rocket - Orbit

View from above orbital plane
View from above orbital plane
View from above satellite
View from above satellite

Ground track
Ground track

The orbit data is extracted from the following two-line orbital elements,

1 11289U 79021B   16209.21774679  .00000185  00000-0  92152-4 0  9998
2 11289  81.2482 121.1890 0077089  75.9236 285.0489 14.11542917924997
Epoch (UTC): 27 July 2016 05:13:33
Eccentricity: 0.0077089
inclination: 81.2482°
perigee height: 798 km
apogee height: 910 km
right ascension of ascending node: 121.1890°
argument of perigee: 75.9236°
revolutions per day: 14.11542917
mean anomaly at epoch: 285.0489°
orbit number at epoch: 92499

The dashed part of the orbit path shows where the satellite is in the earth's shadow,  

DLR